DATE,AVE_SWS,AVE_RWS,AVE_RWD,WD_SD,MAX_WS,MAX_WST,AVE_TEMP,MAX_TEMP,MAX_TEMT,MIN_TEMP,MIN_TEMT,MAX_RH,MAX_RHT,MIN_RH,MIN_RHT,MAX_GSW,MAX_GSWT,TOT_GSW,MAX_DSW,MAX_DSWT,TOT_DSW,MAX_NETR,MAX_NETT,MIN_NETR,TOT_NETR,MAX_GPAR,MAX_GPAT,TOT_GPAR,MAX_DPAR,MAX_DPAT,TOT_DPAR,AVE_BP,AVE_RH,POT_PAR,POT_SW,KT_PAR,KT_SW,tot_prec
01/01/2015,2.663,2.36,211.9,27.31,9.41,1035,-3.156,0.966,1434,-8.13,0,65.82,28,29.08,1518,476.1,1125,9050.836,86.9,1230,1674.58226,224.2,1125,-52.92,1159.856,803,1223,15.35618,568.7,1009,6.11678679,750.3,47.45,22.371280766,12650.242318,68.642381993,71.546740156,0
01/02/2015,2.123,1.726,252.9,34.48,8.53,1128,-0.195,4.497,1456,-5.694,2331,83.4,2334,39.32,1452,483.9,1126,4752.479,211.4,1208,3218.67081,257.1,1126,-43.8,435.7848,836,1249,8.525253,385.9,1208,6.10718498,754.3,61.36,22.466233411,12703.934995,37.946961754,37.409503448,0
01/03/2015,1.336,1.136,133,28.21,8.23,1802,-2.904,0.643,2245,-7.537,413,100,1427,50.35,1240,136.6,1114,1929.912,129.5,1114,1928.35933,84,1115,-35.05,156.4532,275,1114,3.905833,260.3,1114,3.89578099,761.3,75.175,22.570162108,12762.703343,17.305294403,15.121498543,13.993
01/04/2015,1.595,0.871,183.6,52.02,10.19,2257,3.747,7.985,2201,-0.067,54,100,0,68.78,2349,88.2,951,1290.239,86.2,933,1355.68641,40.54,1252,-15.83,802.9135,187.2,951,2.788641,182.1,951,3.00945185,745.2,84.39,22.683001468,12826.510385,12.293968256,10.059158425,7.737
01/05/2015,3.212,2.863,289.5,26.63,13.72,1348,-2.22,6.964,0,-10.96,2352,89,31,28.69,1351,614.5,1202,9399.734,226.8,1211,3413.94104,334.8,1100,-62.15,2004.539,1002,1202,15.52591,792.8,1001,7.9319518,752.3,58.845,22.804679612,12895.315476,68.082122898,72.892625371,0.863
01/06/2015,1.119,0.753,212,43.9,5.145,1316,-10.02,-6.419,1434,-14.12,2316,92.6,2226,46.43,6,358.5,1427,4156.809,249.4,1239,3838.07203,174.3,1428,-57.6,-74.03176,640.5,1427,8.061512,466.6,1239,7.22611576,755,69.515,22.935118247,12969.074343,35.149206179,32.051701533,0
01/07/2015,2.652,1.89,281.1,43,13.28,1528,-10.66,-4.609,1323,-16.5,2358,91.8,153,28.06,1422,559.1,1320,6164.666,239.8,1319,3346.17792,306.1,1320,-61.38,229.5271,990,1320,10.75564,459.1,935,7.41683197,749.3,59.93,23.076224962,13048.865668,46.609183338,47.242926371,0
01/08/2015,1.994,1.287,222,46.8,8.97,1518,-13.32,-6.493,1357,-21.55,737,82.4,751,34.32,1357,484.2,1146,9691.917,66.21,1253,1593.76094,221.7,1202,-61.53,1052.625,855,1202,16.85509,521.5,953,5.64234794,756.6,58.36,23.22629404,13133.724923,72.569002919,73.794122057,0
01/09/2015,2.695,1.951,219.9,42.47,11.81,1344,-6.533,-1.353,1501,-10.75,110,90.4,659,36.22,1506,618.8,1223,5967.216,287.3,1215,3237.34469,43.31,1301,-227.6,-1841.842,1087,1132,11.9466,544.7,1215,6.03635569,750.3,63.31,23.384992187,13223.463639,51.086611038,45.125968225,4.22
01/10/2015,2.327,2.047,246,28.06,7.546,2225,-9.57,-5.844,1446,-12.42,713,62.45,2,29.68,1427,510.2,1154,10038.31,66.88,1129,1754.28415,9.07,1152,-61.87,-2557.852,892,1218,17.6185,517,948,5.72394207,759.2,46.065,23.552215109,13318.022842,74.806127229,75.37387583,0
01/11/2015,1.608,1.272,152.7,36.56,6.37,1537,-6.457,-0.728,2351,-13.48,354,74.26,715,36.02,1143,280.8,1133,3075.987,262.6,1133,3154.42621,59.04,1132,-35.99,78.56775,567.8,1133,6.501302,508.6,1132,6.38041092,763.7,55.14,23.727852543,13417.340182,27.399453821,22.925460325,0
01/12/2015,1.288,0.325,147.1,66.22,11.76,2304,-0.466,0.996,1346,-2.761,416,100,411,51.01,18,90.4,1320,1134.497,83.5,1320,1118.64629,29.95,1320,-28.09,29.53806,217.6,1320,2.617239,213.4,1320,2.64537223,756.2,75.505,23.911788385,13521.350006,10.945392113,8.3904121961,14.954
01/13/2015,1.951,1.675,350.3,28.83,10,311,-9.84,-0.238,46,-18.01,2334,85.3,616,43.64,1515,508,1155,10182.78,132.2,906,1848.36096,37.29,1158,-74.61,-2005.114,922,1212,18.38457,521.8,935,5.18549079,763.8,64.47,24.103900836,13629.98344,76.272177375,74.708674773,0
01/14/2015,0.558,0.251,306.9,50.07,3.136,1248,-12.66,-5.147,1401,-20.05,401,94.4,2306,54.96,1213,612.2,1253,6355.717,299,1231,4402.66805,99.5,1316,-47.51,-648.4359,1184,1248,12.48819,546.9,1229,8.59203182,759.9,74.68,24.304403829,13743.361457,51.382416486,46.245723943,0
01/15/2015,0.708,0.029,287.3,66.79,4.851,2352,-7.362,-1.923,1445,-11.59,746,96.7,849,49.65,1449,495.9,1204,10486.13,73.6,1048,2028.4246,70.49,934,-63.95,-602.6143,853,1204,17.26801,548.6,954,6.23681214,751.2,73.175,24.515785121,13862.890803,70.436292024,75.641726885,0
01/16/2015,2.287,1.284,278,53.03,13.92,1740,-4.306,3.089,1154,-11.73,2359,71.12,629,34.49,1753,673.7,1155,7272.992,307.3,1223,3779.85622,165.1,1216,-61.34,-1310.931,1172,1155,12.59181,560.6,1223,8.48273207,747.4,52.805,24.735074463,13986.891898,50.906699387,51.998628808,0
01/17/2015,1.069,0.486,146.5,54.69,5.978,2325,-9.66,-4.484,1510,-16.29,748,79.39,339,29.33,1511,521.1,1154,10044.46,122.5,1100,1813.11145,83.5,1147,-52.35,-1061.951,936,1102,18.4625,543.6,942,5.94673371,757.3,54.36,24.962126967,14115.282813,73.962046681,71.160175345,0
01/18/2015,0.633,0.261,145.9,52.01,4.851,55,-1.683,1.937,2021,-6.11,146,100,1033,55.72,58,83.3,1127,1077.46,80.2,1127,1128.83343,34.07,1127,-36.6,188.0687,192.7,1127,2.532813,175,1127,2.52511471,748,77.86,25.19679278,14247.97881,10.052124578,7.5621954131,30.525
01/19/2015,1.397,1.061,288.4,37.5,7.938,1359,0.63,3.813,1157,-1.539,2229,100,0,56.52,1718,740.5,1150,3476.697,277.2,1158,3203.41626,401.4,1150,-46.2,928.1978,1304,1158,6.617976,518.1,1158,6.31422067,744,78.26,25.438917266,14384.892446,26.015163817,24.169085817,0
01/20/2015,1.422,1.123,290,35.77,6.419,128,-1.877,1.191,1312,-6.51,2359,78.43,1828,44.37,1314,576.3,1147,8190.041,206,1140,2939.05202,271.9,1148,-53.61,1700.966,1163,1142,14.3922,537.9,926,6.07585947,747.8,61.4,25.688935567,14526.269783,56.0248982,56.380895593,0
01/21/2015,0.753,0.589,333.3,34.35,5.047,111,-6.372,-1.403,1516,-11.92,741,82.1,644,37.92,1424,557.5,1313,7841.72,282.3,1156,5571.61675,280.1,1314,-58.46,1186.519,1048,1313,14.48891,517.8,1156,10.79507769,753.6,60.01,25.949520934,14673.622457,55.834980679,53.440927915,0
01/22/2015,0.594,0.414,308.3,37.13,4.214,1519,-4.024,1.226,1509,-7.621,2359,100,505,54.59,1432,685.1,1138,9069.729,309,1147,3954.96363,323.7,1308,-52.1,1721.853,1185,1137,15.38482,579.6,1147,8.10723688,755.7,77.295,26.21719155,14824.981612,58.682181768,61.178686336,0.416
01/23/2015,1.284,0.831,182.5,47.2,5.684,1505,-4.378,2.383,1503,-12.61,637,100,851,41.69,1434,538.9,1200,11479.5,71.92,1214,1890.04038,250.6,1242,-48.32,3430.605,895,1219,18.63268,389.6,905,5.28267628,754.5,70.845,26.491773419,14980.248859,70.333834227,76.630903184,0
01/24/2015,0.861,0.128,357,68.35,6.272,1335,-0.693,1.117,1357,-3.191,2038,100,339,70.57,6,120.9,1344,825.3955,138.1,1344,1293.5357,47.67,1344,-73.39,-417.9221,277.4,1344,1.664431,596,1344,3.76891153,738.2,85.285,26.773088702,15139.323636,6.2168060568,5.4519971951,9.238
01/25/2015,1.952,1.22,296.7,49.23,8.87,919,-1.54,2.002,1139,-8.89,2359,92.9,11,29.07,1439,539.8,1324,8383.49,126.4,1143,2262.04648,65.36,1138,-45.47,-807.1294,1257,1308,16.12153,364.9,853,5.158861,743.2,60.985,27.061058447,15302.161298,59.574646836,54.786313101,0
01/26/2015,1.651,1.347,354.4,34.4,6.468,2305,-8.69,-5.101,1420,-10.59,727,88.8,2226,47.99,116,444.4,1303,3912.529,373.7,1258,3972.93228,76.11,1257,-16.53,384.0165,896,1257,8.369864,742.3,1257,8.07506226,749.5,68.395,27.359854984,15471.121164,30.591770332,25.289240246,0.898
01/27/2015,2.492,2.17,346.6,29.06,10.44,1030,-10.05,-7.746,1403,-11.54,2154,91.2,338,70.39,1950,338.7,1231,4899.531,312.2,1230,5011.18453,29.08,1232,-12.46,20.80984,714.1,1230,10.46566,616,1230,10.05158978,743.6,80.795,27.664936307,15643.634875,37.830052756,31.319645588,11.409
01/28/2015,1.742,1.421,344.5,33.65,14.01,927,-8.55,-2.832,1526,-13.31,2359,73.19,0,33.75,1544,548.5,1155,9753.328,157.5,956,2521.43269,27.67,1043,-68.02,-1768.886,1016,1208,18.16106,300.9,941,5.1717884,751.2,53.47,27.976109029,15819.593077,64.916318353,61.653469548,0
01/29/2015,1.142,0.797,152.1,41.41,7.644,1926,-8.85,-0.642,1647,-21.46,705,90.3,0,26.51,1701,583.3,1136,9560.408,271.2,1235,4462.92652,41.25,1051,-30.86,-246.1322,993,1134,16.73553,495.3,1235,8.7416365,754.8,58.405,28.293176994,15998.884849,59.150409315,59.756714859,1.008
01/30/2015,1.934,1.045,317.6,53.63,12.01,2033,-3.391,1.279,1405,-11.6,2358,100,156,50.73,1601,434.4,1245,4114.556,326.1,1248,3515.65439,62.25,1245,-270.3,-1731.184,1187,1249,8.183133,677.3,1209,7.0115122,747,75.365,28.617822216,16182.461318,28.594534337,25.426020919,4.918
01/31/2015,2.093,1.805,336.4,29.2,11.37,815,-11.65,-5.566,1503,-15.63,604,80.9,2359,25.37,1549,583.1,1205,12668.75,84.4,1203,2135.36559,18.77,1129,-67.13,-2412.462,1098,1206,23.48817,192.6,1549,4.80618387,752.4,53.135,28.951120977,16370.931086,81.130433666,77.385641252,0
02/01/2015,0.744,0.25,114.6,58.91,3.43,1302,-7.73,0.665,1410,-18.16,201,89.1,0,46.78,1413,555.9,1225,9418.872,240.8,936,4779.7568,42.08,935,-49.22,-141.1769,1011,1217,17.35344,444.9,936,9.36892544,752.9,67.94,29.289805715,16562.446451,59.247371488,56.868844997,0.508
02/02/2015,1.777,1.133,358.3,48.12,8.62,2030,-8.99,-3.724,259,-14.65,2359,100,49,71.14,2359,37.05,1230,468.6888,54.95,1230,700.586544,12.29,1230,-35.95,-366.2934,75.56,1230,0.8994682,182.7,1230,2.04949136,741.9,85.57,29.633669018,16756.890129,3.0352913756,2.7969915443,20.207
02/03/2015,1.121,0.404,158.3,61.04,6.076,1225,-12.84,-4.37,1553,-22.58,714,83.9,2318,35.93,1538,648.9,1254,9548.175,317.2,1111,4317.04336,60.3,1128,-62.74,-1796.639,1148,1253,17.32898,609.5,1110,9.0867616,754.2,59.915,29.982763441,16954.291837,57.796473745,56.317156102,0
02/04/2015,1.286,1.064,150.7,32.26,7.007,1123,-4.933,-0.152,1829,-16.23,131,88,517,58.35,1202,222.5,1300,3904.544,208.9,1300,4083.35648,32.17,1300,-24.39,310.4644,449.4,1300,8.148045,420.2,1300,8.3254696,753,73.175,30.341724981,17157.273084,26.854257644,22.757369314,0
02/05/2015,2.261,1.725,340.3,38.68,12.2,1025,-6.709,-1.355,325,-16.43,2357,100,535,25.83,1509,804,1110,11435.44,400.4,1105,4255.93616,71.15,1111,-74.45,-1558.403,1484,1110,21.01538,721.3,1105,8.34094688,750.5,62.915,30.705317447,17362.872971,68.442151873,65.861450573,4.38
02/06/2015,1.6,0.88,199.6,52.53,8.13,1215,-13.4,-4.942,1614,-24.61,719,84.7,742,40.16,1626,619.9,1124,11433,265.6,1030,3993.79344,59.54,853,-59.52,-1562.4,1226,1124,21.11846,518.3,1030,8.81172096,753.3,62.43,31.073325793,17570.969897,67.963307631,65.067552144,0
02/07/2015,0.969,0.703,156.3,38.9,6.223,1343,-5.565,-0.505,1530,-12.72,226,86.6,2332,59.1,1014,375,1526,3513.139,271.2,1528,3634.5456,41.2,1526,-25.93,269.3242,705.4,1526,7.765145,516.6,1528,7.70705488,751.3,72.85,31.445534302,17781.44188,24.693951534,19.757334775,0.238
02/08/2015,1.229,0.531,74.05,58.36,7.742,1246,-2.549,0.436,1238,-5.842,2355,100,248,75.53,1148,191.4,1156,2517.147,180.3,1156,2646.11872,27.11,1157,-4.519,183.9458,407.7,1156,5.598263,378.7,1156,5.77704288,748.5,87.765,31.827047117,17997.175151,17.589639967,13.986344962,2.724
02/09/2015,0.96,0.787,6.49,33.09,4.851,49,-5.86,-4.84,1353,-6.783,712,90.2,722,74.5,1658,38.31,1124,641.9664,38.82,1124,714.674128,-0.326,432,-62.49,-1053.539,69.7,1124,1.143426,84.3,1340,1.5291248,750.8,82.35,32.212740956,18215.272656,3.5496079069,3.5243304458,12.909
02/10/2015,1.859,1.623,349.9,28.68,9.31,1605,-3.724,0.968,1411,-7.599,0,85.6,18,54.78,1339,904,1303,10227.4,165.8,1405,3502.2848,98.8,946,-56.29,-936.6796,1047,1330,11.95393,387.9,1057,5.76849056,752.2,70.19,32.602056515,18435.418128,36.666183909,55.476908249,0
02/11/2015,1.353,0.48,9.23,62.63,8.13,109,-7.214,-0.49,1517,-13.19,739,89.8,743,31.59,1548,805,1249,15519.1,248.7,1419,3602.59648,87.8,1249,-47.91,-938.162,1293,1248,24.17106,493.5,856,8.54268128,750.9,60.695,32.994775044,18657.48787,73.257235329,83.178936567,0
02/12/2015,1.705,0.264,152.5,73.47,7.84,2134,-4.06,1.483,1231,-11.01,2359,100,1514,49.53,2130,800,1135,5898.942,413,1216,5343.45168,112.6,1135,-53.12,370.5761,1410,1135,10.91554,771.8,1216,10.17543744,744.5,74.765,33.396522044,18884.662923,32.684660953,31.236681449,3.315
02/13/2015,1.559,1.073,335.2,44,7.497,314,-14.78,-8.89,1510,-22.4,2318,73.47,2324,26.4,1622,679.4,1120,15466.37,78.15,1132,2411.67472,19.88,1140,-63.43,-1366.092,1228,1152,25.99169,372,830,6.04538592,751.6,49.935,33.80136769,19113.590162,76.895379614,80.918183707,0
02/14/2015,1.162,0.859,142.6,38.27,8.09,1159,-12.75,-5.565,1345,-24.34,335,100,1815,50.99,1117,260.7,1013,4421.529,239.9,1013,4496.6712,31.9,1013,-24.39,128.2685,542.4,1013,9.162822,470.7,1014,8.85544912,743.8,75.495,34.209023999,19344.106739,26.784809763,22.8572405,3.727
02/15/2015,2.806,2.435,327.8,29.22,14.7,1210,-12.17,-8.58,139,-19.69,2355,100,46,32.78,1656,792.6,1142,13117.6,297,1134,4705.64976,65.83,1138,-171.4,-1537.202,1553,1134,24.44606,532.1,943,9.4280424,744.1,66.39,34.620211522,19576.620106,70.612104678,67.006459383,0
02/16/2015,1.081,0.786,327.9,38.73,8.18,152,-15.53,-8.22,1438,-26.94,732,73.98,736,18.89,1429,667.2,1153,14254.87,230.4,1232,4407.81824,42.63,1106,-39.95,-958.579,1288,1207,26.72282,404.2,1232,8.46186768,752.1,46.435,35.038961843,19813.409993,76.266015299,71.945566186,0
02/17/2015,0.96,0.33,324.2,61.76,5.096,1108,-11.49,-4.101,1511,-18.12,2343,85.4,2257,30.21,0,678.8,1210,13772.98,248.9,959,4228.97776,50.38,910,-56.3,-597.163,1302,1142,26.4348,472.4,959,8.24066432,748,57.805,35.459925247,20051.451307,74.548380504,68.68819513,0
02/18/2015,0.976,0.602,154.9,45.09,5.978,1958,-10.98,-0.446,1505,-23.38,652,97.6,2352,32.4,1506,699.2,1245,15807.06,137,1318,2978.38352,89.2,859,-53,-170.2633,1200,1318,27.45621,220.2,1318,5.74086464,745.3,65,35.882885458,20290.621751,76.516171009,77.90328061,0.366
02/19/2015,2.601,2.125,289.9,34.01,11.76,1810,-11.2,-6.744,1257,-17.35,2352,96.9,6,32.51,1411,694.9,1211,9681.721,418.1,1242,8648.34992,85.9,1212,-46.04,-308.0154,1344,1211,18.95752,740.5,1242,15.8672752,743.6,64.705,36.310179762,20532.242986,52.209931552,47.153742564,0
02/20/2015,2.141,1.638,278.8,38.59,8.13,1151,-15.06,-7.541,1518,-21.77,0,78.07,2354,29.95,1520,686.2,1204,15897.19,148.2,1212,3760.34624,48.93,1159,-55.32,-1357.169,1291,1202,29.60271,250.7,1145,7.3504312,754,54.01,36.742795461,20776.873299,80.567386419,76.513870838,0
02/21/2015,1.594,1.327,160,32.14,10,1229,-11.11,-3.881,2226,-24.28,343,100,2104,29.81,1051,582.6,1001,6063.673,304.9,1107,5489.03936,65.42,1001,-28.13,199.5579,1118,1001,12.62119,597.1,1114,10.63499584,758.3,64.905,37.176814555,21022.297187,33.949089375,28.844007608,10.278
02/22/2015,0.708,0.199,231.7,61.06,4.165,1147,-1.46,4.338,1428,-4.849,654,100,0,54.93,1429,738.4,1209,9679.932,431.5,1151,4416.524,98.3,1229,-192.4,-764.6989,1376,1207,17.39886,773.3,1143,9.09565888,753.7,77.465,37.612026937,21268.395841,46.258767253,45.513220988,1.599
02/23/2015,1.748,1.38,329,35,9.11,1652,-10.35,-2.736,3,-21.98,2351,100,305,27.07,1437,938,1222,15733.03,319.4,1222,4350.87296,146.6,1223,-68.59,-572.8433,1837,1222,30.25731,642.2,851,8.8341456,756.7,63.535,38.052873456,21517.68042,79.513863875,73.116756515,0
02/24/2015,1.814,1.554,151.4,29.27,9.9,1440,-15.25,-5.439,1503,-27.89,619,85.5,2317,24.21,1507,793.1,1332,16144.93,307.4,1029,5523.20944,72.63,958,-34.24,-403.2819,1510,1029,30.77748,583.9,1029,12.0020992,753.3,54.855,38.496297325,21768.422407,79.949195478,74.166743452,0
02/25/2015,1.712,0.589,250.3,64.57,9.36,1602,-6.393,1.735,1401,-16.58,703,86.8,711,27.89,2003,746.7,1219,16719.71,222.8,1355,3781.1312,98.8,1347,-55.73,-82.59084,1335,1345,30.35042,413.8,1404,8.89548352,745.6,57.345,38.940334284,22019.511076,77.940830653,75.931340809,0
02/26/2015,1.312,1.095,0.015,30.84,6.468,1449,-8.9,-7.109,1424,-12.43,2355,79.7,1128,43.3,1950,871,1259,7628.182,550.3,1259,7566.832,131.1,1259,-35.87,276.2144,1857,1259,16.8001,1019,1259,14.9889264,750.9,61.5,39.38537379,22271.166654,42.655682512,34.251380354,0.476
02/27/2015,0.938,0.607,331.3,42.19,6.86,1003,-10.67,-4.328,1436,-17.12,644,85.2,654,29.11,1436,769.7,1149,17274.17,152.2,1145,2942.22768,96.2,1154,-62.49,-592.434,1535,1149,33.84841,287.4,1145,6.39010512,759.3,57.155,39.836562404,22526.299356,84.968199959,76.684455476,0
02/28/2015,0.949,0.088,181.3,70.21,4.655,1116,-11.91,-1.948,1615,-21.07,636,87.1,647,25.83,1616,759.3,1221,18231.19,83.5,1154,2738.66208,99.1,1151,-63.39,-151.8628,1427,1205,33.95141,363.7,803,6.80643488,767.9,56.465,40.287797389,22781.458279,84.272192078,80.026439821,0
03/01/2015,1.126,0.954,160.9,29.93,6.615,1311,-9.19,-3.595,1308,-19.4,306,92.3,2121,59.23,916,430.2,1125,6250.957,360.5,1125,6412.44123,49.55,1124,-30.49,448.0856,950,1125,13.92215,748.7,1125,13.3487055,762,75.765,40.738885043,23036.533891,34.174106595,27.134971909,7.778
03/02/2015,2.32,1.607,303,43.84,11.71,1046,-3.001,1.287,1337,-6.834,2344,94,742,34.57,1338,907,1144,14086.08,347.5,1144,4810.75569,102.4,1144,-107.5,-611.108,1845,1058,27.26936,626.9,1144,10.01962611,753.1,64.285,41.192877318,23293.251973,66.199211551,60.472792791,0
03/03/2015,1.986,1.642,151.7,33.07,8.72,1457,-6.49,0.505,2342,-16.78,659,91.8,2043,33.21,1322,473,1054,8775.517,353.7,1104,8131.06359,61.98,943,-37.41,40.66107,943,1054,18.26159,699.2,1107,16.3906938,755.6,62.505,41.649715765,23551.579474,43.84565336,37.26084278,15.293
03/04/2015,1.579,1.253,221.5,35.91,7.105,1524,2.864,5.98,1320,0.26,3,92.1,2359,64.14,1500,465.9,1220,5865.791,351,1219,6146.55639,104.9,1220,-12.38,918.0791,929,1220,12.55514,705.7,1219,13.1799447,745.3,78.12,42.105866178,23809.517914,29.818030454,24.636328301,0.451
03/05/2015,1.766,1.531,346.5,28.43,9.11,440,-4.905,0.54,0,-11.1,2359,100,228,32.1,1137,208,1248,3247.638,188.5,1248,3447.55827,27.53,1247,-45.89,-483.5911,490.2,1248,7.94972,409,1248,7.81179282,753.1,66.05,42.561147323,24066.96481,18.678349857,13.494173551,0.809
03/06/2015,1.239,0.221,218.6,70.48,5.635,24,-9.45,-2.485,1618,-19.04,650,84.8,641,23.68,1546,803,1221,19324.38,83,1106,3006.69408,134.7,1111,-64.44,369.8388,1459,1228,35.48264,173,1101,6.4672335,760.5,54.24,43.021481476,24327.269021,82.476564689,79.435056945,0
03/07/2015,1.839,1.164,184,48.65,9.6,1302,-4.604,1.978,1328,-12.21,633,76.9,2331,32.54,1219,898,1125,15171.5,345.2,1323,6185.47293,168.5,1118,-40.18,1023.153,1736,1125,28.68208,631.5,1323,12.4549191,753.3,54.72,43.481165163,24587.205414,65.964377662,61.70485724,0
03/08/2015,1.565,0.232,294.4,73.11,10.63,1335,0.109,5.963,1025,-5.702,2346,90.2,1130,30.48,1533,927,1152,12581.1,472.2,1129,7882.55442,237.5,1131,-53.61,790.1404,1823,1152,23.79041,867,1129,15.4709802,751.1,60.34,43.939470134,24846.362187,54.143597835,50.6355816,0.424
03/09/2015,1.522,0.484,217.6,63.52,8.23,1308,0.261,9.4,1604,-9.59,350,90,411,25.16,1659,1001,1150,18061.69,367.3,1149,4522.76721,248.7,1150,-51.26,1493.813,1920,1150,32.8456,666.1,1149,9.37968525,753.6,57.58,44.398613356,25105.992965,73.97888699,71.941747236,0
03/10/2015,1.137,0.894,153.4,33.25,6.419,1314,2.048,11.85,1242,-7.416,607,100,2001,35.8,1146,619.7,1127,11397.19,397.1,1230,9388.66149,144.3,1127,-30.41,2053.497,1172,1127,22.39888,783.9,1230,18.8193213,754.8,67.9,44.860356331,25367.093819,49.930232018,44.929033185,2.644
03/11/2015,1.128,0.357,302.7,61.8,7.35,1339,5.735,13.86,1431,-2.29,2307,100,0,27.95,1732,942,1142,15931.7,351.5,1313,7231.49856,287.9,1143,-48.41,2663.947,1731,1142,29.55965,597.9,1313,13.396266,749,63.975,45.320235714,25627.140872,65.223954674,62.167293963,0.205
03/12/2015,2.374,2.06,331.6,29.29,13.13,1007,1.885,4.469,1422,-3.183,2348,57.51,311,13.38,1553,802,1203,20480.27,151.2,1204,3657.05145,196.4,1201,-60.13,1675.672,1517,1210,38.33864,154.8,1151,5.82328539,759.6,35.445,45.778094462,25886.045321,83.748876947,79.117029065,0
03/13/2015,1.441,0.971,155.9,43.99,6.076,1408,-0.234,6.716,1504,-7.846,638,77.63,615,14.39,1506,842,1151,16496.87,435.6,1037,8701.58484,248.7,1311,-43.32,2373.325,1595,1237,31.90392,801,1037,14.6705949,763,46.01,46.239175594,26146.771924,68.997596929,63.093333464,0
03/14/2015,1.167,1.039,137.4,25.46,5.194,1045,3.513,6.39,1357,0.575,30,100,706,65.22,10,186.5,1356,3391.058,169.9,1356,3611.65896,21.02,954,-20.76,402.6161,438,1113,8.137367,380.8,1113,8.27289099,749,82.61,46.699243952,26406.925836,17.425050839,12.841547786,11.777
03/15/2015,2.814,2.461,311.3,28.21,13.03,1013,2.484,4.856,1034,0.575,2045,100,0,52.98,1156,824,1002,5221.941,451,1020,5128.85763,304.9,1002,-29.43,1336.236,1639,1003,10.90899,826,1019,10.57335552,744.6,76.49,47.15684364,26665.683794,23.13341852,19.583000535,0
03/16/2015,1.355,0.218,329.9,71.57,10.73,200,2.438,7.702,1458,-2.187,551,75.71,611,36.03,1458,753.8,946,13730.2,497.4,1252,11253.08106,290.9,946,-40.59,3448.245,1447,946,26.19561,830,1253,19.854432,747.8,55.87,47.613540035,26923.93097,55.017144242,50.996268024,0
03/17/2015,2.128,1.095,310.6,55.52,14.99,1624,3.07,9.09,1332,-2.178,2143,100,405,30.46,1557,1112,1242,10107.54,471.5,1238,5513.6133,489.3,1242,-58.09,2754.139,2306,1241,19.43703,904,1238,11.07864225,741.9,65.23,48.072480234,27183.446944,40.432758837,37.182701741,1.952
03/18/2015,2.73,2.345,319.9,30.05,15.58,1508,-2.909,0.584,1421,-6.099,2349,79.84,202,26.16,1622,1140,1203,19006.82,417.9,1225,9338.40297,512.2,1153,-56.95,5015.423,2337,1203,36.96202,764.2,1225,17.4566106,750.5,53,48.528530974,27441.329022,76.165544801,69.263482045,0
03/19/2015,1.363,0.891,341.4,44.15,10.39,855,-3.757,2.591,1501,-10.61,453,85.3,456,17.39,1515,837,1202,21907.45,82.7,1157,2885.8752,384.8,1214,-60.86,6154.365,1629,1158,41.95332,170,1157,6.21343476,756.7,51.345,48.981560981,27697.502972,85.651251531,79.095397234,0
03/20/2015,1.017,0.808,117.1,32.86,4.459,844,-3.474,0.193,1122,-7.367,207,100,2127,28.43,849,243.8,852,5504.895,205.9,901,5551.46397,104.1,859,-53.65,1111.333,536.7,1229,12.04143,431.6,1229,11.30398191,756.7,64.215,49.436127091,27954.54554,24.357551266,19.692307257,4.495
03/21/2015,1.352,0.742,223.7,49.48,9.11,2239,1.032,5.586,1711,-3.623,230,100,0,44.46,2346,884,1031,9562.476,470,1101,8090.31249,270.7,1349,-184.9,1770.081,1978,1022,18.39998,800,1101,14.6679273,749.2,72.23,49.889410055,28210.862529,36.881534537,33.896432589,0.905
03/22/2015,2.195,1.881,319.3,30.31,11.52,1359,-2.697,1.479,16,-7.922,2358,68.32,415,27.67,1456,1085,1143,20313.56,368.3,1130,5983.36128,593.9,1144,-58.09,6432.295,2273,1132,39.61469,681.7,1130,11.8311921,751.1,47.995,50.339289689,28465.255044,78.695369451,71.362648845,0
03/23/2015,1.721,1.45,332.9,31.76,7.546,1131,-4.956,0.056,1513,-9.93,558,59.57,620,20.48,1325,852,1147,22522.64,85.7,956,3095.57079,429.8,1137,-57.04,7455.198,1684,1203,43.91,183.8,956,6.69970782,755.1,40.025,50.786570237,28718.177859,86.459864872,78.426424233,0
03/24/2015,1.257,0.688,355,51.72,6.125,31,-3.432,3.641,1637,-9.94,627,83.5,2359,31.69,1639,994,1221,20750.92,389.2,1305,6411.58713,563.5,1221,-52.06,7777.448,2071,1219,40.99269,717.3,1305,12.5445879,758.2,57.595,51.235938017,28972.280938,80.007689108,71.623356285,0
03/25/2015,1.466,1.181,155.8,33.48,7.987,1338,-0.282,10.25,1337,-9.77,611,100,1924,25.18,1334,974,1144,15836.88,440.3,1327,7006.02435,559.2,1145,-42.58,7234.521,1785,1333,28.72528,818,1327,13.6192212,757.7,62.59,51.681546913,29224.258487,55.581308447,54.190870256,3.196
03/26/2015,1.295,0.332,119.4,68.43,8.67,1844,4.724,9.11,912,0.715,234,100,0,80.1,925,684.4,909,5484.188,323.1,1216,4823.08983,418,910,-4.6,3326.836,1286,909,11.4587,687.4,1216,10.40813631,745.8,90.05,52.123290848,29474.050525,21.983838345,18.606835173,10.874
03/27/2015,1.141,0.947,341.9,31.58,7.448,2355,3.33,6.078,1525,0.716,2359,100,0,52.02,1711,617,1154,7297.924,383.1,1154,7387.79652,182.7,1155,-28.33,2201.336,1105,1154,13.70478,725.5,1154,14.9073795,743.9,76.01,52.564775058,29723.695698,26.072174731,24.552545801,2.631
03/28/2015,2.347,2.074,337.1,27.61,10.39,2314,-2.037,0.723,0,-5.14,2357,87.7,1140,42.51,2345,376.1,1220,6277.487,329,1219,6405.62832,233.6,2357,-63.1,1488.241,733.2,1220,12.23988,656.9,1219,12.7812321,747.5,65.105,53.005062486,29972.664128,23.091907501,20.944040787,1.455
03/29/2015,1.366,0.316,293.3,67.8,6.664,1007,-0.934,6.729,1649,-8.47,530,61.88,633,14.3,1636,900,1152,23887.44,69.06,945,2729.93877,532.6,1308,-60.86,9938.493,1481,1145,39.42134,155.5,947,6.17023485,754.1,38.09,53.441165683,30219.26651,73.765868495,79.047054277,0